Regional Weather Roundup
Issued by NWS

Home | Current Version | Previous Version | Text Only | Print | Product List | Glossary On
Versions: 1 2 3 4 5 6 7 8 9 10 11 12 13 14 15 16 17 18 19 20 21 22 23 24 25 26 27 28 29 30 31 32 33 34 35 36 37 38 39 40 41 42 43 44 45 46 47 48 49 50
000
ASUS45 KABQ 271201
RWRNM
NEW MEXICO REGIONAL WEATHER ROUNDUP
NATIONAL WEATHER SERVICE ALBUQUERQUE NM
600 AM MDT THU APR 27 2017

NOTE: "FAIR" MEANS FEW OR NO CLOUDS BELOW 12,000 FEET AGL WITH NO
       SIGNIFICANT WEATHER OR OBSTRUCTIONS TO VISION.

      THIS PRODUCT IS RELEASED AS TWO VERSIONS.  ONE VERSION NEAR
      THE TOP OF THE HOUR CONTAINING PRELIMINARY DATA FROM ALBUQUERQUE
      AND OTHER STATIONS.  A FINAL VERSION WITH ADDITIONAL DATA IS
      ISSUED ABOUT 10 MINUTES AFTER THE HOUR.

NMZ501-503-504-510>518-271300-
NORTHWEST PLATEAU/NORTHCENTRAL MOUNTAINS

CITY           SKY/WX    TMP DP  RH WIND       PRES   REMARKS
FARMINGTON     LGT RAIN  44  41  89 SE7       29.72F
6HR MIN TEMP:  43; 6HR MAX TEMP:  50; 6HR PCP:  0.11;

LOS ALAMOS     FAIR      45  31  57 W13G20    29.75R
SANTA FE       CLOUDY    45  32  60 W7        29.72F
6HR MIN TEMP:  38; 6HR MAX TEMP:  49;

TAOS             N/A     36  27  69 CALM      29.75S
ANGEL FIRE     LGT SNOW  32  31  96 SE3       29.75F VSB 3/4

$$
NMZ402-403-502-505>509-271300-
WESTCENTRAL MOUNTAINS/SOUTHWEST MOUNTAINS

CITY           SKY/WX    TMP DP  RH WIND       PRES   REMARKS
GALLUP         CLOUDY    49  24  37 SW18G26   29.78R
6HR MIN TEMP:  49; 6HR MAX TEMP:  55;

GRANTS         FAIR      51  22  31 W25G36    29.77R
SILVER CITY    FAIR      53  22  29 NW15      29.84F

$$
NMZ407-409-411-412-271300-
SOUTHERN DESERTS

CITY           SKY/WX    TMP DP  RH WIND       PRES   REMARKS
DEMING         FAIR      49  24  37 W9        29.80F
6HR MIN TEMP:  49; 6HR MAX TEMP:  66;

LAS CRUCES     FAIR      58  22  25 SW9       29.80R
HOLLOMAN AFB   FAIR      58  21  23 SE7       29.78
ALAMOGORDO     FAIR      54  25  32 SE10      29.76F
T OR C         FAIR      54  21  27 N3        29.75S
6HR MIN TEMP:  53; 6HR MAX TEMP:  66;


$$
NMZ519>523-271300-
CENTRAL VALLEYS/CENTRAL HIGHLANDS

CITY           SKY/WX    TMP DP  RH WIND       PRES   REMARKS
ALBUQUERQUE    FAIR      54  27  35 CALM      29.73S
6HR MIN TEMP:  50; 6HR MAX TEMP:  58;

DOUBLE EAGLE   MOCLDY    48  28  46 W9        29.74
MORIARTY ARPT  CLOUDY    51  29  43 W5        29.75S
6HR MIN TEMP:  44; 6HR MAX TEMP:  53;

CLINES CORNERS CLOUDY    47  24  40 W20G28    29.76S
6HR MIN TEMP:  40; 6HR MAX TEMP:  50; 6HR PCP: TRACE;

BELEN          FAIR      52  22  31 S8        29.72F
6HR MIN TEMP:  50; 6HR MAX TEMP:  58;

SOCORRO        FAIR      55  22  27 SW7       29.73S
6HR MIN TEMP:  51; 6HR MAX TEMP:  62;


$$
NMZ524>526-539-540-271300-
SOUTHCENTRAL MOUNTAINS

CITY           SKY/WX    TMP DP  RH WIND       PRES   REMARKS
RUIDOSO        NOT AVBL

$$
NMZ527>531-271300-
NORTHEAST HIGHLANDS/NORTHEAST PLAINS

CITY           SKY/WX    TMP DP  RH WIND       PRES   REMARKS
LAS VEGAS      MOCLDY    45  31  58 W14G24    29.70R
6HR MIN TEMP:  36; 6HR MAX TEMP:  50;

RATON          MOCLDY    39  30  70 W9        29.67R WCI  33
6HR MIN TEMP:  36; 6HR MAX TEMP:  41;

CLAYTON        FAIR      40  34  79 SW8       29.64R WCI  34
6HR MIN TEMP:  37; 6HR MAX TEMP:  43;


$$
NMZ532>537-271300-
EASTCENTRAL PLAINS

CITY           SKY/WX    TMP DP  RH WIND       PRES   REMARKS
SANTA ROSA     FAIR      47  24  39 CALM      29.65F
TUCUMCARI      FAIR      46  39  76 W3        29.61F
6HR MIN TEMP:  44; 6HR MAX TEMP:  53; 6HR PCP: TRACE;

CANNON AFB     FAIR      42  38  86 SE8       29.68F
6HR MIN TEMP:  42; 6HR MAX TEMP:  54;

CLOVIS AIRPORT FAIR      45  32  61 SE13      29.69S

$$
NMZ028-029-538-271300-
SOUTHEAST PLAINS

CITY           SKY/WX    TMP DP  RH WIND       PRES   REMARKS
ROSWELL        FAIR      50  26  39 CALM      29.68
6HR MIN TEMP:  45; 6HR MAX TEMP:  58;

ARTESIA        FAIR      57  23  26 W5G13     29.69S
CARLSBAD       FAIR      65  24  21 SW16      29.67S
6HR MIN TEMP:  52; 6HR MAX TEMP:  65;

HOBBS          CLEAR     48  32  53 S7        29.71S


$$



USA.gov is the U.S. government's official web portal to all federal, state and local government web resources and services.